Location: Buckland
(65.9785°N, 161.1281°W)
Time: 22:07:08
(UTC+00:00)

PRISM - Pass Details

Date: 25 January 2021
Orbit: 565 x 584 km, 98.2° (Epoch: 06 March)

Event Time Altitude Azimuth Distance (km) Brightness Sun altitude
Rises 13:21:18 0° 21° (NNE) 2,791 ? -37.3°
Reaches altitude 10° 13:23:34 10° 29° (NNE) 1,892 ? -37.1°
Enters shadow 13:23:55 12° 31° (NNE) 1,760 ? -37.1°
